This is the latest recevied weather packets stored in our database for station/object CE4TQY-10. If no packets are shown the sender has not sent any weather packets the latest 10 day(s).
| Time | Temp. | Humidity | Pressure | Rain* | Wind** | Luminosity | Snow |
|---|---|---|---|---|---|---|---|
| 1777903494 | 16.11° C | 50% | 1019.4 hPa | - | - | - | - |
| 1777902593 | 16.11° C | 49% | 1019.3 hPa | - | - | - | - |
| 1777901691 | 16.11° C | 49% | 1019.4 hPa | - | - | - | - |
| 1777900828 | 15.56° C | 49% | 1019.4 hPa | - | - | - | - |
| 1777900790 | 15.56° C | 49% | 1019.4 hPa | - | - | - | - |
| 1777899889 | 15.56° C | 50% | 1019.5 hPa | - | - | - | - |
| 1777898988 | 15.56° C | 49% | 1019.4 hPa | - | - | - | - |
| 1777898087 | 15° C | 51% | 1019.3 hPa | - | - | - | - |
| 1777897235 | 15° C | 49% | 1019.3 hPa | - | - | - | - |
| 1777897186 | 15° C | 49% | 1019.3 hPa | - | - | - | - |
| 1777896285 | 15.56° C | 46% | 1019.3 hPa | - | - | - | - |
| 1777895415 | 15° C | 49% | 1019.1 hPa | - | - | - | - |
| 1777895384 | 15° C | 49% | 1019.1 hPa | - | - | - | - |
| 1777894484 | 15° C | 51% | 1019.1 hPa | - | - | - | - |
| 1777893583 | 15° C | 49% | 1019 hPa | - | - | - | - |
| 1777892682 | 15° C | 47% | 1018.9 hPa | - | - | - | - |
| 1777891780 | 15° C | 49% | 1018.8 hPa | - | - | - | - |
| 1777890879 | 14.44° C | 53% | 1018.8 hPa | - | - | - | - |
| 1777889979 | 14.44° C | 53% | 1018.7 hPa | - | - | - | - |
| 1777889078 | 14.44° C | 53% | 1018.7 hPa | - | - | - | - |
| 1777888176 | 15° C | 51% | 1018.8 hPa | - | - | - | - |
| 1777887276 | 15° C | 50% | 1018.8 hPa | - | - | - | - |
| 1777886375 | 15.56° C | 48% | 1018.9 hPa | - | - | - | - |
| 1777885474 | 15.56° C | 48% | 1018.9 hPa | - | - | - | - |
| 1777884573 | 15.56° C | 48% | 1018.9 hPa | - | - | - | - |
* Rain since midnight (hover to see other rain measurements)
** Current wind speed in m/s (hover to see current wind gust speed)